Location: Central Springs Elementary School at Manly
(43.2859°N, 93.1959°W)
Time: 09:14:27
(UTC+00:00)

ISS - Visible Passes

Search period start: 11 October 2024 00:00
Search period end: 21 October 2024 00:00
Orbit: 411 x 424 km, 51.6° (Epoch: 10 October)

Date Brightness Start Highest point End Pass type
(mag) Time Alt. Az. Time Alt. Az. Time Alt. Az.
15 Oct -0.5 11:20:50 10° SE 11:21:34 11° SE 11:22:19 10° ESE visible
17 Oct -1.8 11:17:34 10° SSW 11:20:27 27° SE 11:23:20 10° ENE visible
18 Oct -1.2 10:30:27 14° SSE 10:31:42 16° SE 10:33:53 10° E visible
19 Oct -3.7 11:16:57 21° SW 11:19:01 74° SE 11:22:20 10° ENE visible
20 Oct -2.6 10:30:14 40° ESE 10:30:14 40° ESE 10:33:03 10° ENE visible
